[[{"header":{"parameterUnit":"m.s-1","parameterCategory":1,"la1":30.2991,"la2":30.254,"lo1":-89.0895,"lo2":-89.0444,"dy":0.0017,"dx":0.0017,"nx":28,"ny":28,"refTime":"2025-11-05T03:00:00:Z","depth":0,"parameterNumber":2,"parameterNumberName":"U-component_of_WINDS"},"data":[0,0,0,0,0,0,0,0,0,0,0,0,0,0,0,0,0,0,0,0,0,0,0,0,0,0,0,0,0,0,0,0,0,0,0,0,0,0,0,0,0,0,0,0,0,0,0,0,0,0,0,0,0,0,0,0,0,0,-0.9195,-0.9195,0,-0.9197,-0.9197,-0.9197,-0.9145,-0.9144,-0.9143,-0.9141,-0.9147,-0.9148,-0.915,0,0,0,0,0,0,0,0,0,0,0,0,0,-0.9149,-0.915,-0.9195,-0.9195,-0.9195,-0.9197,-0.9197,-0.9197,-0.9146,-0.9144,-0.9142,-0.9141,-0.9146,-0.9148,-0.915,0,0,0,0,0,0,0,0,0,0,0,0,0,-0.9162,-0.9151,-0.9195,-0.9169,-0.9167,-0.9197,-0.9197,-0.9197,-0.9146,-0.9144,-0.9142,-0.914,-0.9146,-0.9148,-0.915,-0.9205,0,0,-0.9157,-0.9157,0,0,0,0,0,0,0,0,-0.9161,-0.9164,-0.9173,-0.9171,-0.9169,-0.9169,-0.9183,-0.92,-0.9146,-0.9154,-0.9141,-0.9139,-0.9156,-0.9157,-0.9162,-0.9205,-0.9206,-0.9157,-0.9158,-0.9159,-0.916,0,0,0,0,0,0,0,-0.9161,-0.9163,-0.9196,-0.9173,-0.9171,-0.9159,-0.9158,-0.9186,-0.9167,-0.9153,-0.9149,-0.915,-0.9154,-0.916,-0.9162,-0.9206,-0.9157,-0.9159,-0.916,-0.9161,-0.9296,-0.9298,0,0,0,0,0,0,-0.9163,-0.9163,-0.9196,-0.9196,-0.916,-0.9161,-0.9161,-0.9171,-0.9166,-0.9164,-0.9152,-0.9148,-0.9158,-0.9159,-0.9162,-0.9228,-0.9159,-0.9161,-0.9162,-0.9294,-0.9297,-0.9299,0,0,0,0,0,0,-0.9162,-0.9166,-0.9195,-0.9178,-0.9181,-0.9164,-0.9176,-0.9172,-0.9178,-0.9165,-0.9162,-0.9161,-0.9156,-0.9159,-0.9195,-0.9227,-0.9162,-0.9164,-0.9291,-0.9295,-0.9298,-0.9359,0,0,0,0,0,0,-0.9161,-0.9166,-0.9186,-0.9179,-0.9182,-0.9228,-0.9178,-0.9173,-0.9181,-0.9176,-0.9173,-0.9171,-0.9155,-0.9192,-0.9197,-0.9229,-0.9166,-0.9288,-0.9293,-0.9297,-0.9354,-0.9364,-0.9373,0,0,0,0,0,-0.9159,-0.9204,-0.9187,-0.9192,-0.9207,-0.923,-0.9231,-0.9211,-0.9184,-0.9205,-0.9197,-0.9171,-0.9222,-0.9196,-0.9201,-0.9235,-0.9286,-0.9291,-0.9296,-0.935,-0.9362,-0.9373,0,0,0,0,0,0,-0.9216,-0.9202,-0.9184,-0.9227,-0.923,-0.9221,-0.9246,-0.9224,-0.9235,-0.923,-0.9205,-0.9205,-0.9245,-0.9243,-0.9214,-0.9289,-0.925,-0.9256,-0.9289,-0.93,-0.9309,-0.931,-0.9167,0,0,0,0,0,-0.9233,-0.9252,-0.9239,-0.9278,-0.9281,-0.9263,-0.9272,-0.9256,-0.9258,-0.926,-0.9254,-0.9258,-0.9275,-0.9287,-0.9302,-0.9353,-0.9353,-0.9378,-0.9388,-0.9395,-0.9402,-0.943,-0.9442,-0.9316,-0.9316,-0.9316,0,0,-0.927,-0.9264,-0.9278,-0.929,-0.929,-0.9311,-0.9265,-0.9289,-0.9305,-0.9264,-0.9297,-0.9294,-0.9297,-0.9341,-0.936,-0.934,-0.9437,-0.9402,-0.9408,-0.9411,-0.9437,-0.9449,-0.946,-0.932,-0.9319,-0.9318,0,0,-0.9347,-0.9344,-0.9377,-0.9378,-0.9379,-0.9367,-0.9375,-0.9369,-0.9365,-0.9398,-0.9368,-0.9387,-0.9417,-0.9421,-0.9426,-0.9506,-0.9483,-0.9511,-0.9561,-0.9588,-0.9598,-0.9607,-0.9637,-0.9648,-0.9517,-0.9517,-0.9517,0,-0.9393,-0.9422,-0.9397,-0.9423,-0.943,-0.9393,-0.9427,-0.943,-0.9436,-0.9442,-0.9419,-0.9456,-0.9456,-0.9501,-0.952,-0.9525,-0.9535,-0.9512,-0.9599,-0.9607,-0.9615,-0.9643,-0.9655,-0.9521,-0.952,-0.952,-0.952,0,-0.9479,-0.95,-0.9527,-0.9533,-0.9542,-0.9572,-0.9554,-0.9567,-0.955,-0.9541,-0.9576,-0.9573,-0.9588,-0.9597,-0.9581,-0.9641,-0.9629,-0.9603,-0.9564,-0.9631,-0.9657,-0.9668,-0.9526,-0.9525,-0.9524,-0.9523,0,0,-0.9593,-0.9584,-0.9595,-0.9598,-0.9596,-0.9612,-0.9641,-0.9654,-0.9667,-0.9672,-0.9697,-0.9723,-0.9699,-0.9706,-0.969,-0.9714,-0.9779,-0.9685,-0.9685,-0.9704,-0.9847,-0.9868,-0.988,-0.9763,-0.9765,-0.9767,-0.9847,0,-0.9669,-0.9717,-0.9696,-0.9747,-0.9767,-0.9732,-0.9758,-0.976,-0.9753,-0.9769,-0.9761,-0.9781,-0.9747,-0.9751,-0.9773,-0.9766,-0.9808,-0.976,-0.9788,-0.9789,-0.979,-0.9894,-0.9916,-0.9992,-0.9857,-0.9859,-0.986,0,-0.9765,-0.9774,-0.9827,-0.9822,-0.9829,-0.9853,-0.9864,-0.988,-0.9882,-0.9875,-0.9883,-0.9861,-0.9891,-0.985,-0.9892,-0.986,-0.987,-0.9869,-0.9871,-0.9874,-0.983,-0.9902,-1.0015,-1.0028,-0.9876,-0.9874,-0.9873,0,-0.9845,-0.987,-0.9905,-0.9908,-0.9903,-0.9921,-0.9919,-0.9919,-0.9929,-0.9939,-0.9945,-0.9959,-0.9967,-0.9978,-0.9962,-0.9934,-1.0007,-0.9964,-1.0003,-1.0004,-1.0021,-1.0021,-1.014,-1.0025,-1.0025,-1.0024,-1.0024,0,-0.9934,-0.9968,-0.9941,-0.9963,-1.0001,-0.9976,-1.0015,-1.001,-1.0011,-1.0032,-1.0002,-1.0023,-0.9999,-1.0018,-1.0005,-1.0043,-1.0046,-1.0042,-1.0039,-1.0046,-1.0047,-1.0054,-1.0049,-1.0027,-1.0027,-1.0026,-1.0026,0,-1.003,-1.0013,-1.005,-1.0042,-1.004,-1.0069,-1.0063,-1.0083,-1.0073,-1.0101,-1.0106,-1.0091,-1.0112,-1.0096,-1.0117,-1.0109,-1.0158,-1.0147,-1.0158,-1.0155,-1.0195,-1.0193,-1.0325,-1.0342,-1.0214,-1.0215,-1.0216,0,-1.0089,-1.0114,-1.0109,-1.0121,-1.0121,-1.014,-1.015,-1.0127,-1.0139,-1.0144,-1.0164,-1.0182,-1.0196,-1.0231,-1.0223,-1.024,-1.0229,-1.0274,-1.0232,-1.0238,-1.0232,-1.0232,-1.0235,-1.0284,-1.0285,-1.0286,-1.0287,0,-1.0195,-1.0186,-1.02,-1.0212,-1.0224,-1.0233,-1.0239,-1.0251,-1.0228,-1.0242,-1.0263,-1.0274,-1.0295,-1.0314,-1.0327,-1.0327,-1.0305,-1.0301,-1.0311,-1.0319,-1.0326,-1.0325,-1.0183,-1.0298,-1.0297,-1.0296,-1.0296,-1.0295,-1.0276,-1.0297,-1.0297,-1.0315,-1.0317,-1.0323,-1.0343,-1.0335,-1.0352,-1.0367,-1.0352,-1.0378,-1.0381,-1.0396,-1.0399,-1.042,-1.0401,-1.0415,-1.0419,-1.0424,-1.043,-1.0321,-1.0422,-1.0421,-1.0421,-1.0421,-1.042,0,-1.0382,-1.038,-1.0396,-1.0406,-1.042,-1.0396,-1.0402,-1.0416,-1.0438,-1.0442,-1.0456,-1.0481,-1.0499,-1.0492,-1.0509,-1.0527,-1.0517,-1.0533,-1.0532,-1.0533,-1.0445,-1.0435,-1.0541,-1.0541,-1.054,-1.054,-1.054,-1.054,-1.0439,-1.0475,-1.0466,-1.0503,-1.0501,-1.0525,-1.0531,-1.0537,-1.054,-1.0569,-1.0584,-1.0579,-1.0579,-1.0596,-1.0612,-1.061,-1.0619,-1.0638,-1.0632,-1.0551,-1.0539,-1.0528,-1.0519,-1.064,-1.064,-1.0719,-1.072,-1.072]},{"header":{"parameterUnit":"m.s-1","parameterCategory":1,"la1":30.2991,"la2":30.254,"lo1":-89.0895,"lo2":-89.0444,"dy":0.0017,"dx":0.0017,"nx":28,"ny":28,"refTime":"2025-11-05T03:00:00:Z","depth":0,"parameterNumber":3,"parameterNumberName":"V-component_of_WINDS"},"data":[0,0,0,0,0,0,0,0,0,0,0,0,0,0,0,0,0,0,0,0,0,0,0,0,0,0,0,0,0,0,0,0,0,0,0,0,0,0,0,0,0,0,0,0,0,0,0,0,0,0,0,0,0,0,0,0,0,0,-0.518,-0.5181,0,-0.5246,-0.5247,-0.5247,-0.5326,-0.5327,-0.5328,-0.533,-0.5398,-0.5399,-0.5399,0,0,0,0,0,0,0,0,0,0,0,0,0,-0.5123,-0.5123,-0.518,-0.5181,-0.5182,-0.5246,-0.5247,-0.5248,-0.5326,-0.5327,-0.5329,-0.533,-0.5398,-0.5399,-0.54,0,0,0,0,0,0,0,0,0,0,0,0,0,-0.5164,-0.5124,-0.518,-0.5228,-0.5233,-0.5246,-0.5247,-0.5248,-0.5325,-0.5327,-0.5329,-0.5331,-0.5398,-0.5399,-0.54,-0.537,0,0,-0.5403,-0.5403,0,0,0,0,0,0,0,0,-0.5162,-0.5166,-0.522,-0.5225,-0.5231,-0.528,-0.5252,-0.5289,-0.5325,-0.5291,-0.533,-0.5332,-0.5357,-0.5362,-0.537,-0.5373,-0.5376,-0.5403,-0.5404,-0.5404,-0.5404,0,0,0,0,0,0,0,-0.5159,-0.5164,-0.5206,-0.5221,-0.5227,-0.5247,-0.5255,-0.5259,-0.5313,-0.5294,-0.53,-0.5306,-0.536,-0.5369,-0.5372,-0.5377,-0.5403,-0.5404,-0.5404,-0.5405,-0.5357,-0.5355,0,0,0,0,0,0,-0.5148,-0.5161,-0.5204,-0.5208,-0.52,-0.5247,-0.5255,-0.5262,-0.5313,-0.5323,-0.5305,-0.531,-0.5366,-0.5371,-0.5375,-0.5342,-0.5404,-0.5405,-0.5406,-0.5359,-0.5357,-0.5355,0,0,0,0,0,0,-0.5147,-0.5151,-0.5201,-0.5186,-0.5194,-0.5246,-0.5252,-0.5262,-0.5271,-0.5321,-0.5331,-0.5303,-0.5368,-0.5374,-0.537,-0.5346,-0.5405,-0.5406,-0.5361,-0.5358,-0.5356,-0.5276,0,0,0,0,0,0,-0.5145,-0.515,-0.5139,-0.5185,-0.5194,-0.5195,-0.5251,-0.5262,-0.5272,-0.528,-0.5323,-0.5332,-0.537,-0.5368,-0.5371,-0.5348,-0.5407,-0.5364,-0.536,-0.5357,-0.5281,-0.5271,-0.5263,0,0,0,0,0,-0.5142,-0.5115,-0.5138,-0.5143,-0.5182,-0.5193,-0.5199,-0.5243,-0.527,-0.5259,-0.5292,-0.533,-0.5348,-0.5367,-0.5371,-0.5348,-0.5365,-0.5361,-0.5357,-0.5286,-0.5273,-0.5263,0,0,0,0,0,0,-0.5066,-0.5122,-0.5149,-0.5135,-0.5159,-0.5207,-0.5194,-0.5228,-0.5245,-0.5251,-0.5305,-0.5314,-0.5304,-0.5326,-0.5346,-0.5321,-0.5362,-0.5359,-0.5307,-0.5295,-0.5286,-0.528,-0.5408,0,0,0,0,0,-0.5047,-0.5052,-0.5101,-0.5084,-0.5095,-0.5142,-0.5149,-0.5181,-0.5208,-0.5218,-0.525,-0.5275,-0.5286,-0.5292,-0.5306,-0.5286,-0.5295,-0.5272,-0.5262,-0.5254,-0.525,-0.524,-0.5229,-0.5341,-0.5341,-0.5341,0,0,-0.5009,-0.5041,-0.504,-0.507,-0.5092,-0.5095,-0.515,-0.5152,-0.5154,-0.5219,-0.5217,-0.5241,-0.5272,-0.526,-0.5256,-0.5278,-0.5221,-0.5249,-0.5242,-0.5242,-0.5234,-0.5223,-0.5214,-0.5338,-0.5338,-0.5339,0,0,-0.4941,-0.4966,-0.4954,-0.4974,-0.5007,-0.5038,-0.5035,-0.5078,-0.5096,-0.5095,-0.5143,-0.5147,-0.5166,-0.5185,-0.5198,-0.5136,-0.5172,-0.5139,-0.5089,-0.5078,-0.5069,-0.5062,-0.5038,-0.5029,-0.5135,-0.5135,-0.5135,0,-0.489,-0.4896,-0.4944,-0.4941,-0.4952,-0.501,-0.4998,-0.5016,-0.5051,-0.5057,-0.5082,-0.5105,-0.513,-0.5122,-0.5107,-0.5116,-0.5113,-0.5134,-0.5067,-0.506,-0.5053,-0.5032,-0.5023,-0.513,-0.5131,-0.5131,-0.5132,0,-0.483,-0.4834,-0.4821,-0.4852,-0.4862,-0.4855,-0.4901,-0.4905,-0.4936,-0.4965,-0.4963,-0.4995,-0.5015,-0.5016,-0.5046,-0.5012,-0.5024,-0.5057,-0.5099,-0.5038,-0.5018,-0.501,-0.5124,-0.5126,-0.5127,-0.5128,0,0,-0.4716,-0.4773,-0.4767,-0.4781,-0.482,-0.4824,-0.482,-0.4839,-0.484,-0.4863,-0.486,-0.4873,-0.4903,-0.4917,-0.4951,-0.4941,-0.4888,-0.4975,-0.4977,-0.4956,-0.4851,-0.4825,-0.4814,-0.4913,-0.4911,-0.491,-0.4848,0,-0.4654,-0.4648,-0.469,-0.4674,-0.4677,-0.4731,-0.4727,-0.4751,-0.4778,-0.4785,-0.4815,-0.4823,-0.4863,-0.4871,-0.4865,-0.4896,-0.4868,-0.4901,-0.491,-0.4909,-0.4898,-0.4804,-0.4777,-0.4717,-0.484,-0.4839,-0.4838,0,-0.4581,-0.4597,-0.458,-0.4619,-0.4622,-0.4618,-0.4638,-0.4644,-0.4672,-0.4692,-0.4707,-0.4745,-0.4743,-0.4783,-0.4781,-0.4803,-0.4809,-0.4825,-0.4824,-0.4825,-0.4869,-0.4802,-0.4699,-0.4689,-0.4827,-0.4828,-0.4829,0,-0.4496,-0.4515,-0.4507,-0.4518,-0.4564,-0.4559,-0.4578,-0.4607,-0.4615,-0.4633,-0.4639,-0.4656,-0.4666,-0.4678,-0.472,-0.4746,-0.4712,-0.4756,-0.4728,-0.4726,-0.4717,-0.4717,-0.4612,-0.4723,-0.4723,-0.4724,-0.4724,0,-0.4422,-0.4409,-0.447,-0.4464,-0.4451,-0.45,-0.4486,-0.451,-0.4536,-0.4536,-0.4585,-0.4585,-0.464,-0.4646,-0.4678,-0.467,-0.4675,-0.469,-0.4699,-0.4685,-0.4683,-0.4689,-0.4694,-0.4721,-0.4722,-0.4722,-0.4723,0,-0.4325,-0.4365,-0.436,-0.4403,-0.4414,-0.4402,-0.4439,-0.4436,-0.4466,-0.4466,-0.4469,-0.4516,-0.4524,-0.4567,-0.4587,-0.4609,-0.4589,-0.4607,-0.4579,-0.4584,-0.4553,-0.4554,-0.4447,-0.4434,-0.4554,-0.4553,-0.4552,0,-0.4274,-0.4265,-0.4307,-0.4311,-0.4327,-0.4332,-0.4341,-0.4388,-0.4395,-0.4425,-0.4418,-0.4431,-0.4443,-0.4455,-0.449,-0.4505,-0.4523,-0.4484,-0.4526,-0.4511,-0.4521,-0.452,-0.4519,-0.4475,-0.4473,-0.4472,-0.4471,0,-0.4179,-0.4199,-0.4209,-0.4225,-0.4233,-0.4248,-0.4266,-0.4266,-0.4319,-0.4324,-0.4333,-0.4343,-0.4362,-0.4373,-0.4394,-0.4414,-0.445,-0.4458,-0.4452,-0.4437,-0.442,-0.4427,-0.4553,-0.446,-0.4461,-0.4462,-0.4462,-0.4463,-0.4103,-0.4097,-0.4125,-0.4134,-0.4152,-0.4168,-0.4166,-0.4196,-0.4204,-0.4222,-0.425,-0.4255,-0.4283,-0.4314,-0.4331,-0.4335,-0.4356,-0.4348,-0.4345,-0.4342,-0.4334,-0.442,-0.4339,-0.434,-0.434,-0.434,-0.4341,0,-0.4009,-0.4029,-0.4037,-0.406,-0.4067,-0.4101,-0.4122,-0.4125,-0.4129,-0.4151,-0.4162,-0.4172,-0.4183,-0.4219,-0.4234,-0.4231,-0.4248,-0.4233,-0.4233,-0.4236,-0.4316,-0.4318,-0.4219,-0.4219,-0.4219,-0.4219,-0.4219,-0.4219,-0.3961,-0.3952,-0.3975,-0.3975,-0.3996,-0.4001,-0.401,-0.4024,-0.4042,-0.405,-0.4059,-0.4083,-0.4111,-0.4128,-0.4139,-0.415,-0.4152,-0.4131,-0.4147,-0.422,-0.4231,-0.4242,-0.4245,-0.4132,-0.4131,-0.4067,-0.4067,-0.4066]}]]